Regional Weather Roundup
Issued by NWS Wilmington, NC

Home | Current Version | Previous Version | Text Only | Print | Product List | Glossary On
Versions: 1 2 3 4 5 6 7 8 9 10 11 12 13 14 15 16 17 18 19 20 21 22 23 24 25 26 27 28 29 30 31 32 33 34 35 36 37 38 39 40 41 42 43 44 45 46 47 48 49 50
000
ASUS42 KILM 292113
RWRILM
RWRILM
REGIONAL HOURLY WEATHER ROUNDUP
NATIONAL WEATHER SERVICE WILMINGTON NC
500 PM EDT WED JUL 29 2015

NOTE: "FAIR" INDICATES FEW OR NO CLOUDS BELOW 12,000 FEET WITH NO
SIGNIFICANT WEATHER AND/OR OBSTRUCTIONS TO VISIBILITY.

...............WFO WILMINGTON COUNTY WARNING AREA...............

......COASTAL NC AND SC COUNTIES......

CITY           SKY/WX    TMP DP  RH WIND       PRES   REMARKS
WILMINGTON     SUNNY     86  71  60 E13       29.95F HX  91
N MYRTLE BEACH SUNNY     86  72  62 E12       29.94F HX  92
MYRTLE BEACH   MOSUNNY   88  73  62 E14       29.96F HX  96

......INLAND NC AND SC COUNTIES.......

CITY           SKY/WX    TMP DP  RH WIND       PRES   REMARKS
LUMBERTON      SUNNY     95  65  37 MISG      29.93F HX  97
ELIZABETHTOWN  MOSUNNY   92  67  43 CALM      29.95F HX  95
WHITEVILLE     SUNNY     92  71  50 E7        29.94F HX  98
FLORENCE       SUNNY     95  66  38 E10       29.92F HX  98
DARLINGTON     NOT AVBL

....................REST OF NORTH CAROLINA......................

.........EASTERN NC.........

CITY           SKY/WX    TMP DP  RH WIND       PRES   REMARKS
CAPE HATTERAS  SUNNY     86  69  56 E13       29.99F HX  90
JACKSONVILLE   MOSUNNY   91  68  46 NE8       29.95F HX  95
MOREHEAD CITY  SUNNY     85  72  65 E10       29.97F HX  91
KENANSVILLE    FAIR      90  69  50 E5        29.97F HX  94
NEW BERN       SUNNY     88  70  55 E9        29.98F HX  93
ELIZABETH CITY MOSUNNY   86  70  58 E13       30.00S HX  90

.........CENTRAL NC.........

CITY           SKY/WX    TMP DP  RH WIND       PRES   REMARKS
RALEIGH DURHAM MOSUNNY   91  69  48 VRB6      29.97F HX  96
ROCKY MOUNT    MOSUNNY   91  69  48 S3        29.97F HX  96
ROANOKE RAPIDS NOT AVBL
FAYETTEVILLE   SUNNY     93  65  39 S5        29.94F HX  95
HOFFMAN        MOSUNNY   93  67  41 S8        29.94F HX  97

.........WESTERN NC.........

CITY           SKY/WX    TMP DP  RH WIND       PRES   REMARKS
CHARLOTTE      PTSUNNY   88  72  58 SE17G25   29.96F HX  94
GREENSBORO     PTSUNNY   87  70  56 SW7       29.98F HX  92
HICKORY        NOT AVBL
BOONE          NOT AVBL
ASHEVILLE      NOT AVBL

.....................REST OF SOUTH CAROLINA.....................

.........EASTERN SC.........

CITY           SKY/WX    TMP DP  RH WIND       PRES   REMARKS
CHARLESTON     LGT RAIN  88  76  67 E10       29.91F HX  99
BEAUFORT MCAS  MOSUNNY   93  76  57 SE5       29.90F HX 105
HILTON HEAD    MOSUNNY   86  73  66 NE3       29.93F HX  93

.........CENTRAL SC.........

CITY           SKY/WX    TMP DP  RH WIND       PRES   REMARKS
COLUMBIA       MOSUNNY   98  65  33 E5        29.89F HX 101
ORANGEBURG     MOSUNNY   96  63  33 E8        29.91F HX  97
SUMTER SHAW    MOSUNNY   95  65  37 NE8       29.89F HX  97

.........WESTERN SC.........

CITY           SKY/WX    TMP DP  RH WIND       PRES   REMARKS
GREENVILLE     NOT AVBL
ROCK HILL      MOSUNNY   91  73  55 VRB5      29.95F HX  99
ANDERSON       TSTM      78  74  87 E8        29.96R
CLEMSON        NOT AVBL
GREENWOOD      CLOUDY    86  74  67 E5        29.96F HX  94


...................COASTAL AND OFFSHORE REPORTS..................

................LOCAL PIERS AND NC RESERVE................


STATION/POSITION TIME  SKY/WX   TEMP    WIND        PRES    VSBY
                                AIR SEA DIR/SP/G
                 (UTC)          (F)     (DEG/KT/KT) (MB)    (MI)
JOHNY MRCER PIER 2000            82                   N/A
NC RESRV MASNBRO NOT AVBL
OCEAN CREST PIER NOT AVBL
SPRINGMAID  PIER 2000            83                   N/A


................COASTAL AND OFFSHORE BUOYS................


STATION/POSITION TIME  SKY/WX   TEMP    WIND        PRES    VSBY
                                AIR SEA DIR/SP/G
                 (UTC)          (F)     (DEG/KT/KT) (MB)    (MI)
DIMNDSHOAL 41025 NOT AVBL
CAPE LOOKOUT     2100            82      50/ 13/ 15 1014.4F
ONSLOW BAY 41036 NOT AVBL
5 WRITEBCH 41038 2008            82 82   90/ 12/ 16 1014.6F
MASONBORO  41110 2019               82                N/A
WVE H/P(F/S)=  3/ 6 WND WVE H/P(F/S)=  3/ 6

WILM HARBR 41108 2011               83                N/A
WVE H/P(F/S)=  3/ 6 WND WVE H/P(F/S)=  3/ 6

27WRITEBCH 41037 2000            79 82   70/ 12/ 16   N/A
FRYING PAN 41013 2050            83 84   50/ 16/ 17 1014.1F
WVE H/P(F/S)=  4/ 6 WND WVE H/P(F/S)=  3/ 6 SWL H/P/D(F/S/D)=  2/160/10

SUNST NRSH 41024 2008            83     120/ 16/ 19 1013.6F
CAPRS NRSH 41029 2008            82      80/ 14/ 16 1013.6F
EDISTO     41004 2050            83 85   40/ 16/ 17 1012.4F
WVE H/P(F/S)=  3/ 6 WND WVE H/P(F/S)=  3/ 6 SWL H/P/D(F/S/D)=  2/ 7



..........OFFSHORE BUOYS BEYOND 100 NM OFFSHORE...........
.....IN A TRIANGLE---HAT TO BERMUDA TO BAHAMAS TO HAT.....


STATION/POSITION TIME  SKY/WX   TEMP    WIND        PRES    VSBY
                                AIR SEA DIR/SP/G
                 (UTC)          (F)     (DEG/KT/KT) (MB)    (MI)
150E HAT   41001 2100            81 83  110/ 14/ 16 1015.9F
W BERMUDA  41048 2050            80 81  250/  8/ 12 1017.7F
WVE H/P(F/S)=  4/ 8 WND WVE H/P(F/S)=  2/ 4 SWL H/P/D(F/S/D)=  3/280/ 8

ATLANTIC S 41049 2050            85 86  220/  6/  8 1019.7F
WVE H/P(F/S)=  4/ 9 SWL H/P/D(F/S/D)=  3/100/ 9

E BAHAMAS  41046 2050            85 86  100/  6/  8 1018.1F
WVE H/P(F/S)=  3/ 8 SWL H/P/D(F/S/D)=  3/120/ 8

NE BAHAMAS 41047 2050            84 85  190/ 10/ 12 1017.6R
WVE H/P(F/S)=  3/ 7 WND WVE H/P(F/S)=  2/ 4 SWL H/P/D(F/S/D)=  2/ 60/ 7

120E CANVRL41010 2020            79 84  210/ 19/ 23 1013.5R

END


USA.gov is the U.S. government's official web portal to all federal, state and local government web resources and services.